Weather History for Naples, FL

Change the Weather History Date:

Wednesday, July 31, 2013

  Actual Average Record
Temperature  
Mean Temperature 84 °F 83 °F  
Max Temperature 93 °F 91 °F 96 °F (1988)
Min Temperature 75 °F 75 °F 70 °F (1963)
Degree Days  
Heating Degree Days 0 0  
Month to date heating degree days 0 0  
Since 1 June heating degree days 0 0  
Since 1 July heating degree days 0 0  
Cooling Degree Days 19 18  
Month to date cooling degree days 532 559  
Year to date cooling degree days 2130 2094  
Since 1 June cooling degree days 1026 1066  
Growing Degree Days 33 (Base 50)    
Moisture  
Dew Point 75 °F    
Average Humidity 80    
Maximum Humidity 100    
Minimum Humidity 60    
Precipitation  
Precipitation 0.01 in 0.21 in 1.89 in (1989)
Month to date precipitation 9.06 7.27  
Year to date precipitation 28.16 27.94  
Snow  
Snow 0.00 in - - ()
Month to date snowfall 0.0  
Since 1 June snowfall 0.0  
Since 1 July snowfall 0.0  
Snow Depth 0.00 in    
Sea Level Pressure  
Sea Level Pressure 30.06 in    
Wind  
Wind Speed 5 mph (ENE)    
Max Wind Speed 20 mph    
Max Gust Speed 23 mph    
Visibility 9 miles    
Events Rain , Thunderstorm    
T = Trace of Precipitation, MM = Missing Value Source: NWS Daily Summary

Daily Weather History Graph

Daily Weather History Graph

Search for Another Location

Airport:

Trip Planner

Search our weather history database for the weather conditions in past years. The results will help you decide how hot, cold, wet, or windy it might be!

Date:

Astronomy

Jul. 31, 2013 Rise Set
Actual Time 6:52 AM EDT 8:14 PM EDT
Civil Twilight 6:27 AM EDT 8:39 PM EDT
Nautical Twilight 5:57 AM EDT 9:08 PM EDT
Astronomical Twilight 5:27 AM EDT 9:39 PM EDT
Moon 1:46 AM EDT (7/31) 3:27 PM EDT (7/31)
Length of Visible Light 14h 11m
Length of Day
13h 21m
Waning Crescent, 32% of the Moon is Illuminated
Jul 31
Waning Crescent
Aug 6
New
Aug 14
First Quarter
Aug 20
Full
Aug 28
Last Quarter

Hourly Weather History & Observations

Time (EDT) Temp. Heat Index Dew Point Humidity Pressure Visibility Wind Dir Wind Speed Gust Speed Precip Events Conditions
12:53 AM 78.1 °F - 75.0 °F 90% 30.11 in 10.0 mi NNE 4.6 mph - N/A   Clear
1:53 AM 77.0 °F - 75.0 °F 94% 30.09 in 10.0 mi ENE 4.6 mph - N/A   Clear
2:53 AM 75.9 °F - 75.0 °F 97% 30.06 in 8.0 mi East 3.5 mph - N/A   Clear
3:53 AM 75.9 °F - 75.0 °F 97% 30.05 in 7.0 mi ENE 3.5 mph - N/A   Clear
4:53 AM 75.9 °F - 75.0 °F 97% 30.04 in 7.0 mi ENE 4.6 mph - N/A   Clear
5:53 AM 75.9 °F - 75.0 °F 97% 30.06 in 7.0 mi ENE 3.5 mph - N/A   Clear
6:53 AM 75.0 °F - 75.0 °F 100% 30.07 in 7.0 mi NE 3.5 mph - N/A   Clear
7:53 AM 78.1 °F - 75.9 °F 93% 30.09 in 7.0 mi NNE 4.6 mph - N/A   Clear
8:53 AM 82.0 °F 91.0 °F 78.1 °F 88% 30.10 in 7.0 mi NE 6.9 mph - N/A   Clear
9:53 AM 84.9 °F 96.6 °F 78.1 °F 80% 30.10 in 8.0 mi NE 8.1 mph - N/A   Partly Cloudy
10:53 AM 87.1 °F 98.8 °F 77.0 °F 72% 30.11 in 9.0 mi ENE 9.2 mph - N/A   Scattered Clouds
11:53 AM 89.1 °F 100.2 °F 75.9 °F 65% 30.11 in 10.0 mi ENE 6.9 mph - N/A   Scattered Clouds
12:53 PM 91.0 °F 101.6 °F 75.0 °F 59% 30.09 in 10.0 mi ESE 5.8 mph - N/A   Clear
1:53 PM 86.0 °F 96.0 °F 75.9 °F 72% 30.06 in 10.0 mi SW 11.5 mph - N/A   Partly Cloudy
2:21 PM 87.8 °F 99.7 °F 77.0 °F 70% 30.07 in 10.0 mi SW 10.4 mph - N/A Thunderstorm Partly Cloudy
2:47 PM 82.4 °F 86.3 °F 69.8 °F 66% 30.07 in 10.0 mi SE 16.1 mph - N/A   Partly Cloudy
2:53 PM 82.0 °F 85.9 °F 70.0 °F 67% 30.06 in 10.0 mi SE 10.4 mph - N/A Thunderstorm Thunderstorm
3:49 PM 75.2 °F - 73.4 °F 94% 30.04 in 7.0 mi East 6.9 mph - 0.01 in Rain Light Rain
3:53 PM 75.9 °F - 72.0 °F 87% 30.03 in 9.0 mi East 4.6 mph - 0.01 in Rain Light Rain
4:53 PM 82.0 °F 86.7 °F 72.0 °F 71% 30.01 in 10.0 mi Calm Calm - 0.00 in   Scattered Clouds
5:53 PM 84.0 °F 92.6 °F 75.9 °F 76% 30.00 in 10.0 mi Calm Calm - N/A   Partly Cloudy
6:53 PM 82.9 °F 90.2 °F 75.0 °F 77% 30.00 in 10.0 mi NE 3.5 mph - N/A   Partly Cloudy
7:53 PM 82.0 °F 89.4 °F 75.9 °F 82% 30.01 in 10.0 mi NNE 3.5 mph - N/A   Partly Cloudy
8:53 PM 81.0 °F 86.7 °F 75.0 °F 82% 30.03 in 10.0 mi NNE 4.6 mph - N/A   Partly Cloudy
9:53 PM 80.1 °F 85.8 °F 77.0 °F 90% 30.05 in 10.0 mi Calm Calm - N/A   Mostly Cloudy
10:53 PM 79.0 °F - 75.0 °F 88% 30.06 in 10.0 mi Calm Calm - N/A   Scattered Clouds
11:53 PM 78.1 °F - 75.9 °F 93% 30.05 in 10.0 mi ENE 4.6 mph - N/A   Clear